| time (UTC) | temp C | wind direction | speed KPH | gust KPH | rain 1hr cm | rain 24hr cm | rain mn cm | humidity % | barometer mb |
| 20260506091531 | 20 | 305 | 6.4 | 8.0 | 0.00 | 0.00 | 0.00 | 84 | 1012.4 |
| 20260506090028 | 20 | 292 | 6.4 | 11.3 | 0.00 | 0.00 | 0.00 | 84 | 1012.2 |
| 20260506084527 | 21 | 300 | 6.4 | 9.7 | 0.00 | 0.00 | 0.00 | 84 | 1012.3 |
| 20260506083024 | 21 | 302 | 6.4 | 8.0 | 0.00 | 0.00 | 0.00 | 84 | 1012.4 |
| 20260506081524 | 21 | 288 | 6.4 | 9.7 | 0.00 | 0.00 | 0.00 | 84 | 1012.4 |
| 20260506073018 | 21 | 302 | 4.8 | 6.4 | 0.00 | 0.00 | 0.00 | 84 | 1012.6 |
| 20260506071516 | 21 | 300 | 3.2 | 6.4 | 0.00 | 0.00 | 0.00 | 82 | 1012.7 |
| 20260506061513 | 22 | 319 | 0.0 | 3.2 | 0.00 | 0.00 | 0.00 | 82 | 1013.3 |
| 20260506044512 | 24 | 286 | 1.6 | 6.4 | 0.00 | 0.00 | 0.00 | 79 | 1013.2 |
| 20260506043013 | 24 | 278 | 3.2 | 6.4 | 0.00 | 0.00 | 0.00 | 79 | 1013.0 |
| 20260506041507 | 25 | 211 | 0.0 | 3.2 | 0.00 | 0.00 | 0.00 | 79 | 1012.7 |
| 20260506040006 | 25 | 172 | 0.0 | 0.0 | 0.00 | 0.00 | 0.00 | 78 | 1012.7 |
| 20260506034506 | 25 | 121 | 0.0 | 1.6 | 0.00 | 0.00 | 0.00 | 78 | 1012.6 |
| 20260506033006 | 25 | 101 | 0.0 | 4.8 | 0.00 | 0.00 | 0.00 | 78 | 1012.7 |
| 20260506031512 | 25 | 109 | 1.6 | 6.4 | 0.00 | 0.00 | 0.00 | 77 | 1012.5 |
| 20260506030007 | 25 | 101 | 1.6 | 4.8 | 0.00 | 0.00 | 0.00 | 77 | 1012.4 |
| 20260506024504 | 25 | 107 | 3.2 | 8.0 | 0.00 | 0.00 | 0.00 | 73 | 1012.2 |
| 20260506023004 | 25 | 101 | 3.2 | 9.7 | 0.00 | 0.00 | 0.00 | 72 | 1012.1 |
| 20260506021504 | 25 | 74 | 4.8 | 9.7 | 0.00 | 0.00 | 0.00 | 73 | 1012.1 |
| 20260506020003 | 25 | 120 | 4.8 | 9.7 | 0.00 | 0.00 | 0.00 | 74 | 1012.0 |
| 20260506014505 | 25 | 117 | 4.8 | 9.7 | 0.00 | 0.00 | 0.00 | 74 | 1011.8 |
| 20260506013003 | 26 | 85 | 6.4 | 11.3 | 0.00 | 0.00 | 0.00 | 74 | 1011.8 |
| 20260506011503 | 26 | 121 | 4.8 | 11.3 | 0.00 | 0.00 | 0.00 | 73 | 1011.7 |
| 20260506004628 | 26 | 122 | 8.0 | 16.1 | 0.00 | 0.00 | 0.00 | 72 | 1011.5 |
| 20260506003100 | 26 | 114 | 14.5 | 17.7 | 0.00 | 0.00 | 0.00 | 71 | 1011.4 |
| 20260506001601 | 26 | 103 | 11.3 | 16.1 | 0.00 | 0.00 | 0.00 | 71 | 1011.4 |
| 20260506000058 | 26 | 126 | 9.7 | 17.7 | 0.00 | 0.00 | 0.00 | 71 | 1011.3 |
| 20260505234618 | 26 | 126 | 12.9 | 22.5 | 0.00 | 0.00 | 0.00 | 70 | 1011.4 |
| 20260505233058 | 27 | 90 | 14.5 | 22.5 | 0.00 | 0.00 | 0.00 | 70 | 1011.2 |
| 20260505231559 | 27 | 100 | 14.5 | 22.5 | 0.00 | 0.00 | 0.00 | 72 | 1011.2 |
| 20260505230056 | 27 | 83 | 12.9 | 22.5 | 0.00 | 0.00 | 0.00 | 72 | 1011.4 |
| 20260505224554 | 27 | 142 | 11.3 | 19.3 | 0.00 | 0.00 | 0.00 | 73 | 1011.6 |
| 20260505223102 | 26 | 129 | 11.3 | 14.5 | 0.00 | 0.00 | 0.00 | 76 | 1011.6 |
| 20260505221607 | 27 | 134 | 8.0 | 12.9 | 0.00 | 0.00 | 0.00 | 75 | 1011.8 |
| 20260505220117 | 26 | 137 | 9.7 | 12.9 | 0.00 | 0.00 | 0.00 | 74 | 1011.8 |
| 20260505214608 | 27 | 122 | 9.7 | 12.9 | 0.00 | 0.00 | 0.00 | 72 | 1011.9 |
| 20260505213050 | 27 | 126 | 8.0 | 12.9 | 0.00 | 0.00 | 0.00 | 71 | 1012.2 |
| 20260505211558 | 27 | 134 | 3.2 | 12.9 | 0.00 | 0.00 | 0.00 | 70 | 1012.5 |
| 20260505210048 | 27 | 125 | 4.8 | 12.9 | 0.00 | 0.00 | 0.00 | 70 | 1012.6 |
| 20260505204549 | 27 | 138 | 8.0 | 12.9 | 0.00 | 0.00 | 0.00 | 69 | 1012.8 |
| 20260505203049 | 28 | 136 | 4.8 | 9.7 | 0.00 | 0.00 | 0.00 | 67 | 1012.9 |
| 20260505201548 | 28 | 142 | 6.4 | 11.3 | 0.00 | 0.00 | 0.00 | 68 | 1012.9 |
| 20260505200059 | 28 | 139 | 3.2 | 9.7 | 0.00 | 0.00 | 0.00 | 67 | 1013.0 |
| 20260505194548 | 28 | 147 | 3.2 | 6.4 | 0.00 | 0.00 | 0.00 | 66 | 1013.1 |
| 20260505193044 | 29 | 157 | 1.6 | 6.4 | 0.00 | 0.00 | 0.00 | 65 | 1013.2 |
| 20260505191543 | 31 | 173 | 1.6 | 9.7 | 0.00 | 0.00 | 0.00 | 60 | 1013.3 |
| 20260505190047 | 31 | 184 | 1.6 | 9.7 | 0.00 | 0.00 | 0.00 | 59 | 1013.4 |
| 20260505184541 | 31 | 209 | 1.6 | 9.7 | 0.00 | 0.00 | 0.00 | 59 | 1013.6 |
| 20260505183047 | 31 | 141 | 3.2 | 9.7 | 0.00 | 0.00 | 0.00 | 59 | 1013.8 |
| 20260505181539 | 31 | 190 | 3.2 | 11.3 | 0.00 | 0.00 | 0.00 | 61 | 1014.1 |
| 20260505180034 | 31 | 140 | 1.6 | 6.4 | 0.00 | 0.00 | 0.00 | 63 | 1014.2 |
| 20260505174531 | 30 | 167 | 0.0 | 9.7 | 0.00 | 0.00 | 0.00 | 65 | 1014.3 |
| 20260505173034 | 28 | 166 | 4.8 | 11.3 | 0.00 | 0.00 | 0.00 | 69 | 1014.2 |
| 20260505171523 | 28 | 180 | 9.7 | 14.5 | 0.00 | 0.00 | 0.00 | 71 | 1014.1 |
| 20260505170027 | 27 | 154 | 8.0 | 16.1 | 0.00 | 0.00 | 0.00 | 71 | 1014.3 |
| 20260505164520 | 28 | 146 | 8.0 | 11.3 | 0.00 | 0.00 | 0.00 | 70 | 1014.6 |
| 20260505163019 | 27 | 150 | 6.4 | 12.9 | 0.00 | 0.00 | 0.00 | 71 | 1014.4 |
| 20260505161520 | 27 | 101 | 8.0 | 11.3 | 0.00 | 0.00 | 0.00 | 70 | 1014.4 |
| 20260505153016 | 27 | 146 | 4.8 | 9.7 | 0.00 | 0.00 | 0.00 | 68 | 1014.1 |
| 20260505151511 | 28 | 157 | 0.0 | 3.2 | 0.00 | 0.00 | 0.00 | 68 | 1014.0 |
| 20260505124544 | 19 | 299 | 11.3 | 16.1 | 0.00 | 0.00 | 0.00 | 86 | 1012.9 |
| 20260505123037 | 19 | 302 | 9.7 | 14.5 | 0.00 | 0.00 | 0.00 | 86 | 1012.7 |
| 20260505121540 | 19 | 311 | 11.3 | 16.1 | 0.00 | 0.00 | 0.00 | 86 | 1012.7 |
| 20260505120043 | 19 | 309 | 8.0 | 12.9 | 0.00 | 0.00 | 0.00 | 86 | 1012.4 |
| 20260505114533 | 19 | 286 | 9.7 | 14.5 | 0.00 | 0.00 | 0.00 | 87 | 1012.4 |
| 20260505113034 | 20 | 310 | 9.7 | 11.3 | 0.00 | 0.00 | 0.00 | 88 | 1012.4 |
| 20260505111531 | 20 | 318 | 8.0 | 12.9 | 0.00 | 0.00 | 0.00 | 87 | 1012.6 |
| 20260505101527 | 20 | 300 | 3.2 | 6.4 | 0.00 | 0.00 | 0.00 | 89 | 1012.2 |
| 20260505100024 | 20 | 286 | 4.8 | 8.0 | 0.00 | 0.00 | 0.00 | 89 | 1012.2 |
| 20260505094529 | 20 | 286 | 4.8 | 8.0 | 0.00 | 0.00 | 0.00 | 89 | 1012.2 |
| 20260505093022 | 19 | 287 | 3.2 | 6.4 | 0.00 | 0.00 | 0.00 | 89 | 1012.2 |